Regional Weather Roundup
Issued by NWS

Home | Current Version | Previous Version | Text Only | Print | Product List | Glossary Off
Versions: 1 2 3 4 5 6 7 8 9 10 11 12 13 14 15 16 17 18 19 20 21 22 23 24 25 26 27 28 29 30 31 32 33 34 35 36 37 38 39 40 41 42 43 44 45 46 47 48 49

000
ASUS45 KBOU 221210
RWRCO

WEATHER ROUNDUP FOR COLORADO
NATIONAL WEATHER SERVICE PUEBLO CO
600 AM MDT SUN APR 22 2018

NOTE: "FAIR" INDICATES FEW OR NO CLOUDS BELOW 12000 FEET WITH NO
SIGNIFICANT WEATHER AND/OR OBSTRUCTIONS TO VISIBILITY.

COZ001>005-013-030-031-221300-
...NORTHWEST COLORADO...

CITY           SKY/WX    TMP DP  RH WIND       PRES   REMARKS
CRAIG          CLEAR     28  26  92 SW3       30.25R
HAYDEN         CLEAR     33  30  88 E8        30.26S WCI  26
MEEKER         CLEAR     32  28  85 E5        30.25S WCI  27
RABBIT EARS PA NOT AVBL
STEAMBOAT SPGS FAIR      29  29 100 CALM      30.26S
WALDEN         FAIR      21  19  93 SE7       30.28R WCI  13
$$

COZ006>008-011-221300-
...WEST CENTRAL VALLEYS...

CITY           SKY/WX    TMP DP  RH WIND       PRES   REMARKS
GRAND JUNCTION CLEAR     42  35  76 E13       30.20S
MONTROSE       CLEAR     35  29  78 SE8       30.26S WCI  29
EAGLE          CLEAR     27  26  96 CALM      30.32R
RIFLE          CLEAR     33  31  92 CALM      30.26S
DELTA          NOT AVBL
NUCLA          FAIR      36  28  75 E8        30.26S
$$

COZ017>023-064>068-221300-
...SOUTHWEST COLORADO...

CITY           SKY/WX    TMP DP  RH WIND       PRES   REMARKS
DURANGO        PTCLDY    33  15  47 N5        30.20S WCI  29
CORTEZ         CLEAR     31  21  66 E3        30.19F
PAGOSA SPRINGS FAIR      28  17  63 CALM      30.24S
TELLURIDE      CLEAR     32  25  74 SE6       30.33S WCI  27
WOLF CREEK PAS CLEAR     28  19  69 NW6       30.40S WCI  22
$$

COZ009-010-012-014-032>034-037-058>063-221300-
...CENTRAL COLORADO...

CITY           SKY/WX    TMP DP  RH WIND       PRES   REMARKS
ASPEN          CLEAR     27  23  85 SE3       30.27S
BUENA VISTA    FAIR      28  25  89 E5        30.24S WCI  23
COPPER MTN     NOT AVBL
BERTHOUD PASS  CLOUDY    23  12  63 MISG      30.33R
COTTONWOOD PAS CLEAR     39  27  60 NW3       30.28R
GUNNISON       CLEAR     25  23  92 CALM      30.31R
KREMMLING      PTCLDY    32  30  93 CALM      30.31R
LEADVILLE      CLEAR     22  20  92 NE7       30.29S WCI  13
MONARCH PASS     N/A     25  21  86 NW10      30.44S WCI  15
SALIDA         FAIR      29  25  84 CALM      30.32R
SUNLIGHT       CLEAR     28  27  93 N5        30.38S WCI  23
WILKERSON PASS PTCLDY    28  21  74 N14G21    30.32F WCI  17
$$

COZ069>075-221300-
...SAN LUIS VALLEY/SANGRE DE CRISTO MOUNTAINS...

CITY           SKY/WX    TMP DP  RH WIND       PRES   REMARKS
ALAMOSA        PTCLDY    22  18  85 SW8       30.25R WCI  12
DEL NORTE      FAIR      32  20  60 W13       30.26R WCI  23
LA VETA PASS   CLEAR     30  21  69 W6G18     30.38S WCI  24
SAGUACHE       NOT AVBL
$$

COZ035-036-038>040-221300-
...NORTHERN COLORADO FRONT RANGE...

CITY           SKY/WX    TMP DP  RH WIND       PRES   REMARKS
DENVER INTL AP PTCLDY    33  29  85 W12       30.14S WCI  24
DMNS CITY PARK NOT AVBL
AURORA         PTCLDY    31  31  99 SW7       30.15S WCI  25
FRONT RANGE AP FAIR      32  31  96 W8        30.15R WCI  25
ERIE MUNI ARPT FAIR      29  28  98 CALM      30.21S FOG
BOULDER MUN AP FAIR      32  32 100 CALM      30.15R FOG
CENTENNIAL     PTCLDY    31  29  92 W3        30.15R
BROOMFIELD     CLEAR     34  32  93 CALM      30.15S
LOVELAND       FOG       31  30  96 N7        30.16S VSB 1/4 WCI  24
LONGMONT       NOT AVBL
$$

COZ041-046-047-076>085-087-088-221300-
...PIKES PEAK/PALMER DIVIDE AND SOUTHERN FOOTHILLS...

CITY           SKY/WX    TMP DP  RH WIND       PRES   REMARKS
COLO. SPRINGS  FOG       32  32 100 S3        30.17S VSB 1/8
A. F. ACADEMY  CLEAR     28  28  99 N9        30.16S WCI  19
SCHRIEVER AFB  NOT AVBL
CHEYENNE MTN   NOT AVBL
ELLICOTT         N/A    N/A N/A N/A W7        30.17R
FALCON         FAIR      31  29  92 NW6       30.17R WCI  26
FORT CARSON    FOG       30  30 100 S3        30.16S VSB 1/8
LIMON          CLOUDY    34  34 100 SE3       30.17R
MONUMENT HILL  CLEAR     30  28  93 W10       30.18R WCI  21
CANON CITY     CLOUDY    34  34 100 CALM      30.18S
WALSENBURG     CLOUDY    34  34 100 SW7       30.19S VSB 1/2 WCI  28
TRINIDAD       CLEAR     31  30  96 W9        30.19S WCI  23
$$

COZ042>045-048>051-090-091-221300-
...NORTHEAST COLORADO...

CITY           SKY/WX    TMP DP  RH WIND       PRES   REMARKS
GREELEY ARPT   FOG       28  28 100 NW3       30.17R VSB 3/4
AKRON          PTCLDY    30  29  96 S6        30.17R WCI  24
BURLINGTON     CLOUDY    34  34 100 SW6       30.20S WCI  29
WRAY           CLOUDY    36  36 100 E3        30.21S
YUMA           NOT AVBL
STERLING       NOT AVBL
HOLYOKE        FOG       37  36  93 CALM      30.21S VSB 1/2
FORT MORGAN    FAIR      31  29  94 CALM      30.18R
$$

COZ086-089-092>099-221300-
...SOUTHEAST COLORADO...

CITY           SKY/WX    TMP DP  RH WIND       PRES   REMARKS
PUEBLO         CLOUDY    40  38  93 SW5       30.18S
LA JUNTA       CLOUDY    40  38  93 E6        30.19R
LAMAR          CLOUDY    36  35  96 E3        30.20R FOG
SPRINGFIELD      N/A     38  37  97 S3        30.20R
$$





USA.gov is the U.S. government's official web portal to all federal, state and local government web resources and services.